Volver al catálogo

EKRAN 11

ActivoComunicacionesGEO
NORAD 14377·PAYLOAD·🇷🇺 Russia

Lanzado Sep 29, 1983 desde Baikonur Cosmodrome

Loading…

TLE

ActualizadoSource: Space-Track

Época: Sep 13, 2026, 14:26 UTC

1 14377U 83100A   26256.60192081 -.00000278  00000-0  00000-0 0  9990
2 14377   7.5876 303.9729 0003491 317.2747  42.6178  1.00231721 48263

Sigue EKRAN 11 en tiempo real con AllMySat

Download on the App Store